Iron Mountain, MI

9:48 AM CST on February 26, 2017 (GMT -0600)
Ford

Weather History for KIMT - July, 2013

Change the Weather History Date:

Thursday, July 11, 2013

  Actual Average Record
Temperature  
Mean Temperature 66 °F -  
Max Temperature 82 °F 80 °F 100 °F (1936)
Min Temperature 52 °F 54 °F 36 °F (1945)
Cooling Degree Days 2    
Growing Degree Days 16 (Base 50)    
Moisture  
Dew Point 51 °F    
Average Humidity 60    
Maximum Humidity 93    
Minimum Humidity 31    
Precipitation  
Precipitation 0.00 in - - ()
Sea Level Pressure  
Sea Level Pressure 30.08 in    
Wind  
Wind Speed 3 mph (South)    
Max Wind Speed 8 mph    
Max Gust Speed -    
Visibility 10 miles    
Events      
Averages and records for this station are not official NWS values.
T = Trace of Precipitation, MM = Missing Value Source: NWS Daily Summary

Daily Weather History Graph

Daily Weather History Graph

Search for Another Location

Airport or City:

Trip Planner

Search our weather history database for the weather conditions in past years. The results will help you decide how hot, cold, wet, or windy it might be!

Date:

Astronomy

Jul. 11, 2013 Rise Set
Actual Time 5:13 AM CDT 8:41 PM CDT
Civil Twilight 4:36 AM CDT 9:18 PM CDT
Nautical Twilight 3:47 AM CDT 10:07 PM CDT
Astronomical Twilight 2:43 AM CDT 11:10 PM CDT
Moon 8:45 AM CDT (7/11) 10:07 PM CDT (7/11)
Length of Visible Light 16h 42m
Length of Day
15h 28m
Waxing Crescent, 11% of the Moon is Illuminated
Jul 11
Waxing Crescent
Jul 15
First Quarter
Jul 22
Full
Jul 29
Last Quarter
Aug 6
New

Hourly Weather History & Observations

Time (CDT) Temp. Dew Point Humidity Pressure Visibility Wind Dir Wind Speed Gust Speed Precip Events Conditions
12:54 AM 55.9 °F 51.1 °F 84% 30.00 in 10.0 mi North 3.5 mph - N/A   Clear
1:54 AM 55.0 °F 51.1 °F 86% 30.01 in 10.0 mi Calm Calm - N/A   Clear
2:54 AM 55.9 °F 51.1 °F 84% 30.03 in 10.0 mi Calm Calm - N/A   Clear
3:54 AM 55.0 °F 51.1 °F 86% 30.05 in 10.0 mi Calm Calm - N/A   Clear
4:54 AM 52.0 °F 50.0 °F 93% 30.07 in 10.0 mi Calm Calm - N/A   Clear
5:54 AM 54.0 °F 52.0 °F 93% 30.09 in 10.0 mi Calm Calm - N/A   Clear
6:54 AM 57.9 °F 53.1 °F 84% 30.10 in 10.0 mi Calm Calm - N/A   Clear
7:54 AM 63.0 °F 53.1 °F 70% 30.12 in 10.0 mi NNW 4.6 mph - N/A   Clear
8:54 AM 66.9 °F 54.0 °F 63% 30.12 in 10.0 mi NNW 3.5 mph - N/A   Clear
9:54 AM 70.0 °F 52.0 °F 53% 30.13 in 10.0 mi SW 3.5 mph - N/A   Clear
10:54 AM 73.9 °F 50.0 °F 43% 30.12 in 10.0 mi Variable 3.5 mph - N/A   Clear
11:54 AM 75.9 °F 48.0 °F 37% 30.12 in 10.0 mi NE 3.5 mph - N/A   Clear
12:54 PM 78.1 °F 48.9 °F 36% 30.11 in 10.0 mi Calm Calm - N/A   Clear
1:54 PM 78.1 °F 48.0 °F 35% 30.10 in 10.0 mi Calm Calm - N/A   Clear
2:54 PM 81.0 °F 48.9 °F 33% 30.09 in 10.0 mi WSW 5.8 mph - N/A   Clear
3:54 PM 80.1 °F 46.9 °F 31% 30.08 in 10.0 mi SW 3.5 mph - N/A   Clear
4:54 PM 81.0 °F 50.0 °F 34% 30.07 in 10.0 mi Variable 3.5 mph - N/A   Clear
5:54 PM 80.1 °F 51.1 °F 36% 30.06 in 10.0 mi SE 8.1 mph - N/A   Clear
6:54 PM 78.1 °F 51.1 °F 39% 30.06 in 10.0 mi SSE 5.8 mph - N/A   Clear
7:54 PM 73.9 °F 55.9 °F 53% 30.05 in 10.0 mi SSE 8.1 mph - N/A   Clear
8:54 PM 70.0 °F 55.9 °F 61% 30.05 in 10.0 mi SSE 6.9 mph - N/A   Clear
9:54 PM 66.9 °F 54.0 °F 63% 30.07 in 10.0 mi South 6.9 mph - N/A   Clear
10:54 PM 64.9 °F 53.1 °F 65% 30.07 in 10.0 mi SSE 4.6 mph - N/A   Clear
11:54 PM 63.0 °F 53.1 °F 70% 30.08 in 10.0 mi SE 3.5 mph - N/A   Clear